This is the latest recevied weather packets stored in our database for station/object IZ1RFL-3. If no packets are shown the sender has not sent any weather packets the latest 10 day(s).
| Time | Temp. | Humidity | Pressure | Rain* | Wind** | Luminosity | Snow |
|---|---|---|---|---|---|---|---|
| 1778216468 | 12.78° C | 74% | 1016.2 hPa | - | - | - | - |
| 1778215568 | 12.22° C | 76% | 1016 hPa | - | - | - | - |
| 1778214668 | 12.22° C | 76% | 1015.8 hPa | - | - | - | - |
| 1778213768 | 12.78° C | 74% | 1015.7 hPa | - | - | - | - |
| 1778212868 | 12.22° C | 75% | 1015.6 hPa | - | - | - | - |
| 1778211968 | 12.22° C | 76% | 1015.5 hPa | - | - | - | - |
| 1778211068 | 11.67° C | 79% | 1015.5 hPa | - | - | - | - |
| 1778210168 | 12.78° C | 74% | 1015.3 hPa | - | - | - | - |
| 1778209268 | 12.78° C | 74% | 1015.3 hPa | - | - | - | - |
| 1778208368 | 12.78° C | 74% | 1015.3 hPa | - | - | - | - |
| 1778207468 | 13.33° C | 73% | 1015.2 hPa | - | - | - | - |
| 1778206568 | 13.33° C | 73% | 1015.2 hPa | - | - | - | - |
| 1778205668 | 13.33° C | 74% | 1015.2 hPa | - | - | - | - |
| 1778204768 | 13.33° C | 73% | 1015.1 hPa | - | - | - | - |
| 1778203868 | 13.33° C | 73% | 1015.2 hPa | - | - | - | - |
| 1778202968 | 13.33° C | 73% | 1015.3 hPa | - | - | - | - |
| 1778202068 | 13.33° C | 73% | 1015.4 hPa | - | - | - | - |
| 1778201168 | 13.33° C | 72% | 1015.3 hPa | - | - | - | - |
| 1778200268 | 12.78° C | 73% | 1015.4 hPa | - | - | - | - |
| 1778199368 | 13.89° C | 71% | 1015.3 hPa | - | - | - | - |
| 1778198468 | 13.33° C | 71% | 1015.5 hPa | - | - | - | - |
| 1778197568 | 13.89° C | 69% | 1015.5 hPa | - | - | - | - |
| 1778196668 | 13.33° C | 71% | 1015.8 hPa | - | - | - | - |
| 1778195768 | 14.44° C | 66% | 1015.8 hPa | - | - | - | - |
| 1778194868 | 14.44° C | 64% | 1015.7 hPa | - | - | - | - |
* Rain since midnight (hover to see other rain measurements)
** Current wind speed in m/s (hover to see current wind gust speed)